When you browse on this site, cookies collect data to enhance your experience and personalize the content and advertising you see.
Visit our Privacy Policy to learn more. By continuing to use the site, you agree to this use of cookies and data.
  • în România
  • Lista ţărilor
  • Pe 7 zile
  • Temperatura apei
  • Meteo pe hartă
  • Widget-uri
  • user-avatar
    Intrare

    Meteo pe oră la Kaprun

    Astăzi, 9 Decembrie, Luni

    Timp Temperatura Precipitaţii Vânt Presiune Umiditate
    00:00 -6°C° 0 mm 2 m/s 589 mmHg 60%
    01:00 -6°C° 0 mm 2 m/s 589 mmHg 58%
    02:00 -6°C° 0 mm 2 m/s 589 mmHg 58%
    03:00 -4°C° 0 mm 1 m/s 588 mmHg 59%
    04:00 -4°C° 0 mm 1 m/s 588 mmHg 59%
    05:00 -6°C° 0.1 mm 1 m/s 588 mmHg 62%
    06:00 -6°C° 0.1 mm 1 m/s 587 mmHg 65%
    07:00 -6°C° 0.1 mm 0 m/s 587 mmHg 68%
    08:00 -6°C° 0.5 mm 1 m/s 587 mmHg 73%
    09:00 -4°C° 0.5 mm 1 m/s 588 mmHg 78%
    10:00 -4°C° 0.5 mm 1 m/s 588 mmHg 84%
    11:00 -3°C° 0.3 mm 1 m/s 588 mmHg 85%
    12:00 -3°C° 0.3 mm 1 m/s 587 mmHg 86%
    13:00 -2°C° 0.3 mm 1 m/s 587 mmHg 87%
    14:00 -3°C° 0.2 mm 1 m/s 587 mmHg 89%
    15:00 -3°C° 0.2 mm 1 m/s 586 mmHg 90%
    16:00 -3°C° 0.2 mm 1 m/s 586 mmHg 91%
    17:00 -4°C° 0.1 mm 1 m/s 586 mmHg 90%
    18:00 -6°C° 0.1 mm 1 m/s 586 mmHg 90%
    19:00 -6°C° 0.1 mm 1 m/s 587 mmHg 89%
    20:00 -6°C° 0.1 mm 1 m/s 587 mmHg 88%
    21:00 -6°C° 0.1 mm 1 m/s 587 mmHg 88%
    22:00 -8°C° 0.1 mm 2 m/s 588 mmHg 87%
    23:00 -8°C° 0.4 mm 2 m/s 588 mmHg 90%

    Mâine, 10 Decembrie, Marţi

    Timp Temperatura Precipitaţii Vânt Presiune Umiditate
    00:00 -7°C° 0.4 mm 2 m/s 589 mmHg 92%
    01:00 -7°C° 0.4 mm 2 m/s 589 mmHg 94%
    02:00 -8°C° 0.6 mm 2 m/s 590 mmHg 95%
    03:00 -9°C° 0.6 mm 3 m/s 590 mmHg 95%
    04:00 -9°C° 0.6 mm 3 m/s 590 mmHg 95%
    05:00 -9°C° 1 mm 3 m/s 591 mmHg 95%
    06:00 -9°C° 1 mm 3 m/s 592 mmHg 95%
    07:00 -10°C° 1 mm 4 m/s 593 mmHg 95%
    08:00 -10°C° 0.6 mm 4 m/s 594 mmHg 94%
    09:00 -10°C° 0.6 mm 4 m/s 594 mmHg 92%
    10:00 -11°C° 0.6 mm 4 m/s 595 mmHg 91%
    11:00 -11°C° 0.1 mm 4 m/s 595 mmHg 88%
    12:00 -10°C° 0.1 mm 3 m/s 595 mmHg 84%
    13:00 -10°C° 0.1 mm 3 m/s 595 mmHg 81%
    14:00 -12°C° 0 mm 3 m/s 594 mmHg 85%
    15:00 -13°C° 0 mm 2 m/s 594 mmHg 88%
    16:00 -14°C° 0 mm 2 m/s 593 mmHg 91%
    17:00 -15°C° 0 mm 2 m/s 593 mmHg 83%
    18:00 -15°C° 0 mm 2 m/s 593 mmHg 74%
    19:00 -17°C° 0 mm 3 m/s 593 mmHg 65%
    20:00 -15°C° 0 mm 2 m/s 593 mmHg 58%
    21:00 -15°C° 0 mm 2 m/s 594 mmHg 50%
    22:00 -14°C° 0 mm 2 m/s 594 mmHg 42%
    23:00 -13°C° 0 mm 2 m/s 594 mmHg 38%

    Poimâine, 11 Decembrie, Miercuri

    Timp Temperatura Precipitaţii Vânt Presiune Umiditate
    00:00 -13°C° 0 mm 2 m/s 594 mmHg 34%
    01:00 -12°C° 0 mm 2 m/s 594 mmHg 31%
    02:00 -10°C° 0 mm 2 m/s 594 mmHg 30%
    03:00 -10°C° 0 mm 2 m/s 593 mmHg 29%
    04:00 -9°C° 0 mm 2 m/s 593 mmHg 28%
    05:00 -9°C° 0 mm 2 m/s 593 mmHg 27%
    06:00 -8°C° 0 mm 2 m/s 592 mmHg 27%
    07:00 -8°C° 0 mm 2 m/s 592 mmHg 26%
    08:00 -4°C° 0 mm 1 m/s 593 mmHg 30%
    09:00 -2°C° 0 mm 1 m/s 593 mmHg 35%
    10:00 -1°C° 0 mm 1 m/s 594 mmHg 39%
    11:00 0°C° 0 mm 1 m/s 593 mmHg 46%
    12:00 +1°C° 0 mm 1 m/s 593 mmHg 53%
    13:00 +2°C° 0 mm 1 m/s 593 mmHg 59%
    14:00 0°C° 0 mm 1 m/s 591 mmHg 55%
    15:00 -2°C° 0 mm 1 m/s 590 mmHg 51%
    16:00 -3°C° 0 mm 1 m/s 589 mmHg 46%
    17:00 -4°C° 0 mm 1 m/s 589 mmHg 45%
    18:00 -4°C° 0 mm 1 m/s 588 mmHg 43%
    19:00 -6°C° 0 mm 1 m/s 588 mmHg 41%
    20:00 -6°C° 0 mm 1 m/s 588 mmHg 47%
    21:00 -8°C° 0 mm 2 m/s 588 mmHg 52%
    22:00 -9°C° 0 mm 2 m/s 588 mmHg 58%
    23:00 -8°C° 0.1 mm 2 m/s 588 mmHg 69%

    12 Decembrie, Joi

    Timp Temperatura Precipitaţii Vânt Presiune Umiditate
    00:00 -8°C° 0.1 mm 2 m/s 587 mmHg 80%
    01:00 -7°C° 0.1 mm 1 m/s 587 mmHg 91%
    02:00 -8°C° 0.9 mm 2 m/s 587 mmHg 93%
    03:00 -8°C° 0.9 mm 2 m/s 587 mmHg 94%
    04:00 -8°C° 0.9 mm 2 m/s 587 mmHg 96%
    05:00 -8°C° 0.7 mm 2 m/s 587 mmHg 96%
    06:00 -9°C° 0.7 mm 2 m/s 587 mmHg 96%
    07:00 -8°C° 0.7 mm 1 m/s 587 mmHg 96%
    08:00 -9°C° 0.5 mm 2 m/s 587 mmHg 93%
    09:00 -9°C° 0.5 mm 2 m/s 587 mmHg 91%
    10:00 -9°C° 0.5 mm 2 m/s 588 mmHg 88%
    11:00 -8°C° 0.1 mm 2 m/s 588 mmHg 83%
    12:00 -8°C° 0.1 mm 2 m/s 588 mmHg 79%
    13:00 -8°C° 0.1 mm 2 m/s 588 mmHg 74%
    14:00 -8°C° 0 mm 1 m/s 587 mmHg 78%
    15:00 -10°C° 0 mm 1 m/s 586 mmHg 82%
    16:00 -11°C° 0 mm 0 m/s 585 mmHg 86%
    17:00 -12°C° 0 mm 1 m/s 585 mmHg 82%
    18:00 -14°C° 0 mm 2 m/s 585 mmHg 79%
    19:00 -15°C° 0 mm 2 m/s 585 mmHg 75%
    20:00 -16°C° 0 mm 3 m/s 584 mmHg 75%
    21:00 -16°C° 0 mm 3 m/s 584 mmHg 75%
    22:00 -17°C° 0 mm 4 m/s 583 mmHg 75%
    23:00 -16°C° 0 mm 4 m/s 583 mmHg 76%

    13 Decembrie, Vineri

    Timp Temperatura Precipitaţii Vânt Presiune Umiditate
    00:00 -17°C° 0 mm 5 m/s 582 mmHg 77%
    01:00 -15°C° 0 mm 5 m/s 581 mmHg 78%
    02:00 -16°C° 0.1 mm 6 m/s 581 mmHg 79%
    03:00 -15°C° 0.1 mm 6 m/s 580 mmHg 81%
    04:00 -15°C° 0.1 mm 6 m/s 579 mmHg 82%
    05:00 -15°C° 0 mm 6 m/s 579 mmHg 82%
    06:00 -15°C° 0 mm 6 m/s 578 mmHg 82%
    07:00 -15°C° 0 mm 6 m/s 577 mmHg 82%
    08:00 -14°C° 0 mm 6 m/s 577 mmHg 81%
    09:00 -14°C° 0 mm 6 m/s 576 mmHg 81%
    10:00 -14°C° 0 mm 6 m/s 576 mmHg 80%
    11:00 -12°C° 0.1 mm 5 m/s 576 mmHg 82%
    12:00 -9°C° 0.1 mm 3 m/s 576 mmHg 84%
    13:00 -7°C° 0.1 mm 2 m/s 576 mmHg 85%
    14:00 -8°C° 0.6 mm 2 m/s 576 mmHg 88%
    15:00 -8°C° 0.6 mm 2 m/s 576 mmHg 91%
    16:00 -9°C° 0.6 mm 2 m/s 576 mmHg 94%
    17:00 -10°C° 0 mm 2 m/s 575 mmHg 91%
    18:00 -12°C° 0 mm 2 m/s 575 mmHg 88%
    19:00 -13°C° 0 mm 2 m/s 575 mmHg 85%
    20:00 -12°C° 0 mm 2 m/s 576 mmHg 84%
    21:00 -10°C° 0 mm 2 m/s 577 mmHg 83%
    22:00 -9°C° 0 mm 2 m/s 578 mmHg 82%
    23:00 -9°C° 0 mm 2 m/s 578 mmHg 81%

    14 Decembrie, Sâmbătă

    Timp Temperatura Precipitaţii Vânt Presiune Umiditate
    00:00 -9°C° 0 mm 1 m/s 578 mmHg 80%
    01:00 -9°C° 0 mm 1 m/s 579 mmHg 79%
    02:00 -10°C° 0 mm 1 m/s 579 mmHg 78%
    03:00 -10°C° 0 mm 1 m/s 579 mmHg 77%
    04:00 -11°C° 0 mm 1 m/s 579 mmHg 76%
    05:00 -12°C° 0 mm 2 m/s 579 mmHg 75%
    06:00 -12°C° 0 mm 2 m/s 580 mmHg 74%
    07:00 -12°C° 0 mm 2 m/s 580 mmHg 72%
    08:00 -9°C° 0.2 mm 2 m/s 581 mmHg 77%
    09:00 -8°C° 0.2 mm 2 m/s 582 mmHg 82%
    10:00 -8°C° 0.2 mm 3 m/s 582 mmHg 87%
    11:00 -8°C° 0.6 mm 3 m/s 582 mmHg 88%
    12:00 -7°C° 0.6 mm 3 m/s 582 mmHg 89%
    13:00 -7°C° 0.6 mm 3 m/s 582 mmHg 91%
    14:00 -6°C° 1.1 mm 2 m/s 583 mmHg 92%
    15:00 -4°C° 1.1 mm 1 m/s 584 mmHg 94%
    16:00 -4°C° 1.1 mm 1 m/s 584 mmHg 96%
    17:00 -4°C° 0.6 mm 1 m/s 585 mmHg 95%
    18:00 -6°C° 0.6 mm 1 m/s 585 mmHg 94%
    19:00 -6°C° 0.6 mm 1 m/s 585 mmHg 92%
    20:00 -7°C° 0 mm 1 m/s 586 mmHg 88%
    21:00 -8°C° 0 mm 2 m/s 586 mmHg 84%
    22:00 -8°C° 0 mm 2 m/s 587 mmHg 79%
    23:00 -8°C° 0 mm 2 m/s 587 mmHg 76%
    Arată mai mult